IW2LSY-11 Weather Reports


time (UTC)temp
C
wind
direction
speed
KPH
gust
KPH
rain 1hr
cm
rain 24hr
cm
rain mn
cm
humidity
%
barometer
mb
20260507102009 19 131 0.0 0.0 0.00 0.00 0.00 42 1013.7
20260507101010 19 131 0.0 0.0 0.00 0.00 0.00 42 1013.7
20260507100010 18 131 0.0 0.0 0.00 0.00 0.00 41 1013.8
20260507095010 19 131 0.0 0.0 0.00 0.00 0.00 40 1013.9
20260507094011 18 131 0.0 0.0 0.00 0.00 0.00 41 1014.0
20260507093012 18 131 0.0 0.0 0.00 0.00 0.00 40 1014.1
20260507092012 18 131 0.0 0.0 0.00 0.00 0.00 42 1014.2
20260507091013 18 131 0.0 0.0 0.00 0.00 0.00 45 1014.3
20260507090013 18 131 0.0 0.0 0.00 0.00 0.00 45 1014.3
20260507085014 18 131 0.0 0.0 0.00 0.00 0.00 49 1014.4
20260507084004 17 131 0.0 0.0 0.00 0.00 0.00 47 1014.6
20260507083005 16 131 0.0 0.0 0.00 0.00 0.00 46 1014.6
20260507082014 16 131 0.0 0.0 0.00 0.00 0.00 46 1014.7
20260507081014 17 131 0.0 0.0 0.00 0.00 0.00 52 1014.7
20260507080014 17 131 0.0 0.0 0.00 0.00 0.00 49 1014.8
20260507075004 15 131 0.0 0.0 0.00 0.00 0.00 47 1014.8
20260507074004 16 131 0.0 0.0 0.00 0.00 0.00 48 1014.9
20260507073004 15 131 0.0 0.0 0.00 0.00 0.00 56 1015.0
20260507072006 16 131 0.0 0.0 0.00 0.00 0.00 56 1015.0
20260507071005 15 131 0.0 0.0 0.00 0.00 0.00 58 1014.9
20260507070010 15 131 0.0 0.0 0.00 0.00 0.00 58 1014.9
20260507065006 13 131 0.0 0.0 0.00 0.00 0.00 64 1015.0
20260507064007 15 131 0.0 0.0 0.00 0.00 0.00 61 1015.0
20260507063007 15 131 0.0 0.0 0.00 0.00 0.00 67 1014.9
20260507062008 14 131 0.0 0.0 0.00 0.00 0.00 65 1014.9
20260507061008 13 131 0.0 0.0 0.00 0.00 0.00 68 1015.1
20260507060008 13 131 0.0 0.0 0.00 0.00 0.00 71 1015.1
20260507055008 12 131 0.0 0.0 0.00 0.00 0.00 75 1015.2
20260507054009 13 131 0.0 0.0 0.00 0.00 0.00 73 1015.1
20260507053009 13 131 0.0 0.0 0.00 0.00 0.00 72 1015.0
20260507052009 13 131 0.0 0.0 0.00 0.00 0.00 76 1015.0
20260507051010 12 131 0.0 0.0 0.00 0.00 0.00 84 1015.0
20260507050010 10 131 0.0 0.0 0.00 0.00 0.00 10 1014.9
20260507045011 8 131 0.0 0.0 0.00 0.00 0.00 10 1015.0
20260507044011 10 131 0.0 0.0 0.00 0.00 0.00 99 1014.9
20260507043011 9 131 0.0 0.0 0.00 0.00 0.00 10 1014.8
20260507042012 10 131 0.0 0.0 0.00 0.00 0.00 98 1014.8
20260507041012 10 131 0.0 0.0 0.00 0.00 0.00 98 1014.9
20260507040013 10 131 0.0 0.0 0.00 0.00 0.00 10 1014.9
20260507035013 9 131 0.0 0.0 0.00 0.00 0.00 10 1015.0
20260507034014 8 131 0.0 0.0 0.00 0.00 0.00 10 1015.1
20260507033014 9 131 0.0 0.0 0.00 0.00 0.00 10 1015.4
20260507032004 10 131 0.0 0.0 0.00 0.00 0.00 97 1015.4
20260507031005 10 131 0.0 0.0 0.00 0.00 0.00 97 1015.3
20260507030005 10 131 0.0 0.0 0.00 0.00 0.00 96 1015.2
20260507025005 10 131 0.0 0.0 0.00 0.00 0.00 10 1015.0
20260507024005 10 131 0.0 0.0 0.00 0.00 0.00 96 1014.9
20260507023005 10 131 0.0 0.0 0.00 0.00 0.00 96 1014.8
20260507022005 10 131 0.0 0.0 0.00 0.00 0.00 94 1014.8
20260507021005 10 131 0.0 0.0 0.00 0.00 0.00 94 1014.8
20260507020006 10 131 0.0 0.0 0.00 0.00 0.00 97 1014.7
20260507015007 10 131 0.0 0.0 0.00 0.00 0.00 96 1014.6
20260507014007 10 131 0.0 0.0 0.00 0.00 0.00 95 1014.4
20260507013007 10 131 0.0 0.0 0.00 0.00 0.00 98 1014.3
20260507012008 10 131 0.0 0.0 0.00 0.00 0.00 98 1014.5
20260507011008 10 131 0.0 0.0 0.00 0.00 0.00 97 1014.5
20260507010009 10 131 0.0 0.0 0.00 0.00 0.00 97 1014.6
20260507005009 10 131 0.0 0.0 0.00 0.00 0.00 96 1014.6
20260507004010 10 131 0.0 0.0 0.00 0.00 0.00 97 1014.8
20260507003010 10 131 0.0 0.0 0.00 0.00 0.00 98 1015.1
20260507002010 10 131 0.0 0.0 0.00 0.00 0.00 95 1014.8
20260507001011 10 131 0.0 0.0 0.00 0.00 0.00 94 1014.8
20260507000012 10 131 0.0 0.0 0.00 0.00 0.00 97 1014.9
20260506235012 10 131 0.0 0.0 0.00 0.00 0.00 97 1014.7
20260506234013 10 131 0.0 0.0 0.00 0.00 0.00 93 1014.6
20260506233014 10 131 0.0 0.0 0.00 0.00 0.00 92 1014.3
20260506232014 10 131 0.0 0.0 0.00 0.00 0.00 98 1014.0
20260506231014 9 131 0.0 0.0 0.00 0.00 0.00 10 1013.8
20260506230014 10 131 0.0 0.0 0.00 0.00 0.00 99 1013.7
20260506225015 9 145 0.0 0.0 0.00 0.00 0.00 10 1014.0
20260506224005 8 145 0.0 0.0 0.00 0.00 0.00 10 1014.2
20260506223005 10 145 0.0 0.0 0.00 0.00 0.00 94 1014.3
20260506222006 10 145 0.0 0.0 0.00 0.00 0.00 96 1014.2
20260506221006 10 145 0.0 0.0 0.00 0.00 0.00 98 1014.2
20260506220006 10 145 0.0 0.0 0.00 0.00 0.00 97 1014.2
20260506215007 11 145 0.0 0.0 0.00 0.00 0.00 92 1014.2
20260506214007 11 145 0.0 0.0 0.00 0.00 0.00 92 1014.3
20260506213008 10 145 0.0 0.0 0.00 0.00 0.00 94 1014.3
20260506212009 11 145 0.0 0.0 0.00 0.00 0.00 92 1014.5
20260506211009 10 145 0.0 0.0 0.00 0.00 0.00 94 1014.7
20260506210010 10 145 0.0 0.0 0.00 0.00 0.00 94 1014.8
20260506205011 11 145 0.0 0.0 0.00 0.00 0.00 96 1014.8
20260506204011 10 145 0.0 0.0 0.00 0.00 0.00 99 1014.8
20260506203011 11 145 0.0 0.0 0.00 0.00 0.00 92 1014.4
20260506202012 10 145 0.0 0.0 0.00 0.00 0.00 94 1013.8
20260506201012 11 145 0.0 0.0 0.00 0.00 0.00 91 1013.8
20260506200012 10 145 0.0 0.0 0.00 0.00 0.00 94 1013.7
20260506195012 10 145 0.0 0.0 0.00 0.00 0.00 95 1013.6
20260506194013 10 145 0.0 0.0 0.00 0.00 0.00 95 1013.6
20260506193013 10 145 0.0 0.0 0.00 0.00 0.00 93 1013.4
20260506192013 10 145 0.0 0.0 0.00 0.00 0.00 95 1013.5
20260506191013 11 145 0.0 0.0 0.00 0.00 0.00 93 1013.3
20260506190013 11 145 0.0 0.0 0.00 0.00 0.00 94 1013.2
20260506185014 11 145 0.0 0.0 0.00 0.00 0.00 94 1013.1
20260506184015 11 145 0.0 0.0 0.00 0.00 0.00 92 1012.9
20260506183015 11 145 0.0 0.0 0.00 0.00 0.00 91 1013.0
20260506182004 10 145 0.0 0.0 0.00 0.00 0.00 99 1012.8
20260506181005 10 145 0.0 0.0 0.00 0.00 0.00 10 1012.9
20260506180006 10 145 0.0 0.0 0.00 0.00 0.00 10 1012.9
20260506175006 11 145 0.0 0.0 0.00 0.00 0.00 93 1012.8
20260506174007 12 145 0.0 0.0 0.00 0.00 0.00 88 1012.8
20260506173007 11 145 0.0 0.0 0.00 0.00 0.00 93 1012.9
20260506172008 11 145 0.0 0.0 0.00 0.00 0.00 92 1013.0
20260506171009 11 145 0.0 0.0 0.00 0.00 0.00 95 1012.7
20260506170009 12 145 0.0 0.0 0.00 0.00 0.00 94 1012.2
20260506165009 12 145 0.0 0.0 0.00 0.00 0.00 92 1012.0
20260506164010 12 145 0.0 0.0 0.00 0.00 0.00 95 1011.8
20260506163010 12 145 0.0 0.0 0.00 0.00 0.00 96 1011.6
20260506162011 12 145 0.0 0.0 0.00 0.00 0.00 95 1011.4
20260506161012 12 145 0.0 0.0 0.00 0.00 0.00 90 1011.0
20260506160012 13 145 0.0 0.0 0.00 0.00 0.00 80 1010.8
20260506155012 13 145 0.0 0.0 0.00 0.00 0.00 81 1010.5
20260506154013 13 145 0.0 0.0 0.00 0.00 0.00 83 1010.3
20260506153014 15 145 0.0 0.0 0.00 0.00 0.00 77 1010.1
20260506152015 15 145 0.0 0.0 0.00 0.00 0.00 75 1010.0
20260506151004 15 145 0.0 0.0 0.00 0.00 0.00 73 1009.9
20260506150005 15 145 0.0 0.0 0.00 0.00 0.00 69 1009.8
20260506145006 15 145 0.0 0.0 0.00 0.00 0.00 61 1009.7
20260506144007 15 145 0.0 0.0 0.00 0.00 0.00 59 1009.8
20260506143007 16 145 0.0 0.0 0.00 0.00 0.00 61 1009.7
20260506142007 15 145 0.0 0.0 0.00 0.00 0.00 60 1009.9
20260506141008 15 145 0.0 0.0 0.00 0.00 0.00 69 1010.0
20260506140008 15 145 0.0 0.0 0.00 0.00 0.00 73 1010.4
20260506135009 14 145 0.0 0.0 0.00 0.00 0.00 74 1010.4
20260506134009 15 145 0.0 0.0 0.00 0.00 0.00 64 1010.1
20260506133010 15 145 0.0 0.0 0.00 0.00 0.00 62 1009.9
20260506132010 15 145 0.0 0.0 0.00 0.00 0.00 63 1009.9
20260506131011 15 145 0.0 0.0 0.00 0.00 0.00 56 1009.9
20260506130011 15 145 0.0 0.0 0.00 0.00 0.00 55 1010.0
20260506125011 16 145 0.0 0.0 0.00 0.00 0.00 55 1010.0
20260506124012 15 145 0.0 0.0 0.00 0.00 0.00 60 1010.0
20260506123012 15 145 0.0 0.0 0.00 0.00 0.00 62 1009.9
20260506122012 15 145 0.0 0.0 0.00 0.00 0.00 75 1010.1
20260506121012 14 145 0.0 0.0 0.00 0.00 0.00 81 1010.0
20260506120012 15 145 0.0 0.0 0.00 0.00 0.00 78 1009.9
20260506115013 14 145 0.0 0.0 0.00 0.00 0.00 75 1010.0
20260506114014 15 145 0.0 0.0 0.00 0.00 0.00 78 1010.3
20260506113014 13 145 0.0 0.0 0.00 0.00 0.00 79 1010.4
20260506112014 14 145 0.0 0.0 0.00 0.00 0.00 85 1010.5
20260506111014 13 145 0.0 0.0 0.00 0.00 0.00 86 1010.6
20260506110015 14 145 0.0 0.0 0.00 0.00 0.00 83 1010.7
20260506105005 14 145 0.0 0.0 0.00 0.00 0.00 80 1010.7
20260506104005 14 145 0.0 0.0 0.00 0.00 0.00 79 1010.6
20260506103006 14 145 0.0 0.0 0.00 0.00 0.00 79 1010.6